CW3467 Sant Marti de Canals ES current weather conditions

sailwx.info

Wind from 086

Air temperature -2.8° C
Dewpoint -7.1° C

Last reported at 2017-Dec-17 06:01 UTC.
Time now 2017-Dec-17 06:22 UTC

Location: N 42°14' E 000°59'.
View on Google Maps.

See reports from other nearby stations

  
Tides and Currents Weather Stations Pressure Air Temp Water Temp Dewpoint Dewpoint Depression Visibility Wind Speed Wind Dir Waves Ship Positions
date/time (UTC)wind fromknots sea level pressurealtimeterstation pressurevisibilityair tempwater tempwave heightnotes
2017-Dec-17 06:01 086 -2.8
2017-Dec-17 05:46 167 -2.2
2017-Dec-17 05:30 060 0 gusting 2 -2.8
2017-Dec-17 05:17 046 -2.8
2017-Dec-17 05:00 099 0 gusting 1 -2.8
2017-Dec-17 04:45 101 -1.7
2017-Dec-17 04:31 282 -1.7
2017-Dec-17 04:15 095 -1.7
2017-Dec-17 04:00 102 1 gusting 2 -1.7
2017-Dec-17 03:46 110 -2.2
2017-Dec-17 03:31 110 -1.7
2017-Dec-17 03:16 104 -1.7
2017-Dec-17 03:00 111 1 gusting 2 -1.7
2017-Dec-17 02:45 101 -1.7
2017-Dec-17 02:31 212 -1.1
2017-Dec-17 02:15 029 -1.7
2017-Dec-17 02:01 032 0 gusting 3 -1.7
2017-Dec-17 01:45 177 -1.7
2017-Dec-17 01:30 109 0 gusting 2 -0.6
2017-Dec-17 01:15 294 1 gusting 5 -0.0
2017-Dec-17 01:00 346 0 gusting 6 -0.0
2017-Dec-17 00:45 020 3 gusting 6 -0.0
2017-Dec-17 00:30 341 1 gusting 6 -0.6
2017-Dec-17 00:15 098 -0.6
2017-Dec-17 00:01 104 0 gusting 1 -0.6
2017-Dec-16 23:45 229 -0.6
2017-Dec-16 23:31 316 -0.0
2017-Dec-16 23:15 162 0.6
2017-Dec-16 23:01 135 -0.0
2017-Dec-16 22:45 203 1 gusting 3 0.6
2017-Dec-16 22:30 217 1.1
2017-Dec-16 22:15 036 0 gusting 1 1.1
2017-Dec-16 22:00 130 0 gusting 1 1.1
2017-Dec-16 21:45 052 2.2
2017-Dec-16 21:30 040 0 gusting 2 2.2
2017-Dec-16 21:15 355 2.8
2017-Dec-16 21:00 045 2.2
2017-Dec-16 20:45 285 1.7
2017-Dec-16 20:30 134 2.8
2017-Dec-16 20:15 111 1 gusting 2 2.2
2017-Dec-16 20:00 224 2.8
2017-Dec-16 19:44 347 3.3
2017-Dec-16 19:30 115 3.3
2017-Dec-16 19:15 050 0 gusting 5 3.9
2017-Dec-16 19:01 083 1 gusting 3 3.9
2017-Dec-16 18:44 037 2 gusting 5 3.3
2017-Dec-16 18:29 029 2 gusting 7 3.9
2017-Dec-16 17:59 051 3 gusting 6 3.9
2017-Dec-16 17:14 036 2 gusting 6 5.0
2017-Dec-16 16:59 052 2 gusting 4 5.0
2017-Dec-16 16:44 065 2 gusting 5 5.6
2017-Dec-16 16:29 355 2 gusting 8 6.1
2017-Dec-16 16:14 328 5 gusting 8 6.7
2017-Dec-16 16:00 336 2 gusting 8 6.1
2017-Dec-16 15:44 287 0 gusting 6 7.2
2017-Dec-16 15:29 333 4 gusting 7 7.8
2017-Dec-16 15:14 065 5 gusting 9 8.3
2017-Dec-16 14:59 245 9.4
2017-Dec-16 14:45 223 9.4
2017-Dec-16 14:29 284 9.4
2017-Dec-16 14:14 113 0 gusting 2 8.3
2017-Dec-16 13:59 294 8.9
2017-Dec-16 13:44 252 0 gusting 3 8.3
2017-Dec-16 13:29 240 7.8
2017-Dec-16 13:14 260 0 gusting 4 7.2
2017-Dec-16 12:59 216 1 gusting 4 6.7
2017-Dec-16 12:44 150 6.1
2017-Dec-16 12:28 240 6.1
2017-Dec-16 12:13 221 5.6
2017-Dec-16 12:00 358 4.4
2017-Dec-16 11:43 280 0 gusting 1 3.9
2017-Dec-16 11:28 264 3.3
2017-Dec-16 11:13 274 4.4
2017-Dec-16 10:58 290 0 gusting 2 3.3
2017-Dec-16 10:43 117 3.3
2017-Dec-16 10:28 243 2.8
2017-Dec-16 10:13 226 1.7
2017-Dec-16 09:58 249 1.7
2017-Dec-16 09:43 134 1.1
2017-Dec-16 09:28 239 1.1
2017-Dec-16 09:13 228 -0.0
2017-Dec-16 08:58 148 0.6
2017-Dec-16 08:44 128 -0.0
2017-Dec-16 08:28 037 -0.6
2017-Dec-16 08:13 060 0 gusting 1 -1.7
2017-Dec-16 07:58 031 -2.2
2017-Dec-16 07:43 103 2 gusting 3 -3.3
2017-Dec-16 07:28 225 -3.3
2017-Dec-16 07:13 252 0 gusting 4 -1.7
2017-Dec-16 06:58 008 1 gusting 3 -2.2
2017-Dec-16 06:43 051 -1.7
2017-Dec-16 06:28 053 -1.7
2017-Dec-16 06:12 062 -2.2
2017-Dec-16 05:57 165 -2.2
2017-Dec-16 05:43 060 -2.2
2017-Dec-16 05:27 037 1 gusting 2 -2.2
2017-Dec-16 05:13 237 -1.1
2017-Dec-16 04:58 110 -1.7
2017-Dec-16 04:42 031 -1.1
2017-Dec-16 04:27 031 -1.1
2017-Dec-16 04:12 044 0 gusting 1 -1.1
2017-Dec-16 03:58 103 1 gusting 2 -1.1
2017-Dec-16 03:42 119 -1.1
2017-Dec-16 03:17 117 -1.1
2017-Dec-16 02:57 118 -1.1
2017-Dec-16 02:43 354 0 gusting 2 -1.1
2017-Dec-16 02:27 346 1 gusting 2 -1.1
2017-Dec-16 01:42 300 0 gusting 2 -0.6
2017-Dec-16 01:27 107 -1.1
2017-Dec-16 01:12 280 -0.6
2017-Dec-16 00:57 114 -0.6
2017-Dec-16 00:42 103 -0.6
2017-Dec-16 00:27 087 -0.0
2017-Dec-16 00:12 134 0 gusting 3 -0.0
2017-Dec-15 23:57 118 1 gusting 2 -0.0
2017-Dec-15 23:42 044 -0.0
2017-Dec-15 23:27 046 0.6
2017-Dec-15 23:12 103 0.6
2017-Dec-15 22:58 025 1 gusting 3 -0.0
2017-Dec-15 22:42 120 -0.0
2017-Dec-15 22:26 109 1 gusting 2 0.6
2017-Dec-15 22:11 108 0.6
2017-Dec-15 21:56 116 0.6
2017-Dec-15 21:41 115 1.7
2017-Dec-15 21:26 060 1 gusting 3 1.7
2017-Dec-15 21:11 109 2.2
2017-Dec-15 20:56 048 2.2
2017-Dec-15 20:41 005 0 gusting 2 2.2
2017-Dec-15 20:27 038 2.2
2017-Dec-15 20:11 132 2.2
2017-Dec-15 19:56 226 3.3
2017-Dec-15 19:41 204 0 gusting 3 2.8
2017-Dec-15 19:26 047 3.9
2017-Dec-15 19:11 046 3.9
2017-Dec-15 18:56 052 3.9
2017-Dec-15 18:41 063 4.4
2017-Dec-15 18:27 050 1 gusting 2 4.4
2017-Dec-15 18:12 031 0 gusting 2 5.0
2017-Dec-15 17:56 316 0 gusting 4 5.6
2017-Dec-15 17:41 153 3 gusting 6 6.1
2017-Dec-15 17:26 128 4 gusting 6 6.1
2017-Dec-15 17:11 112 4 gusting 7 6.7
2017-Dec-15 16:56 136 3 gusting 5 6.7
2017-Dec-15 16:41 129 1 gusting 6 7.2
2017-Dec-15 16:26 218 1 gusting 4 7.8
2017-Dec-15 16:11 188 1 gusting 5 10.0
2017-Dec-15 15:56 063 10.0
2017-Dec-15 15:41 046 8.3
2017-Dec-15 15:26 129 8.3
2017-Dec-15 15:11 141 0 gusting 3 8.9
2017-Dec-15 14:57 131 1 gusting 3 8.3
2017-Dec-15 14:41 138 1 gusting 4 8.3
2017-Dec-15 14:26 164 3 gusting 6 8.9
2017-Dec-15 14:11 238 5 gusting 8 10.0
2017-Dec-15 13:56 148 0 gusting 3 10.6
2017-Dec-15 13:41 184 0 gusting 2 10.0
2017-Dec-15 13:26 073 8.9
2017-Dec-15 13:11 148 10.0
2017-Dec-15 12:56 132 0 gusting 5 10.0
2017-Dec-15 12:41 203 2 gusting 5 10.0
2017-Dec-15 12:26 110 0 gusting 5 9.4
2017-Dec-15 12:11 224 1 gusting 3 9.4
2017-Dec-15 11:56 212 2 gusting 4 8.9
2017-Dec-15 11:41 235 8.3
2017-Dec-15 11:26 207 0 gusting 3 7.8
2017-Dec-15 11:10 158 1 gusting 3 7.8
2017-Dec-15 10:56 148 0 gusting 4 7.8
2017-Dec-15 10:40 134 6.7
2017-Dec-15 10:25 081 5.6
2017-Dec-15 10:10 136 5.0
2017-Dec-15 09:55 213 0 gusting 7 4.4
2017-Dec-15 09:41 061 1 gusting 6 5.6
2017-Dec-15 09:25 046 3.9
2017-Dec-15 09:10 218 4.4
2017-Dec-15 08:55 345 3.9
2017-Dec-15 08:40 003 2.8
2017-Dec-15 08:25 119 2.8
2017-Dec-15 08:10 053 0 gusting 1 2.8
2017-Dec-15 07:55 054 0 gusting 1 1.7
2017-Dec-15 07:40 267 2.2
2017-Dec-15 07:25 026 2.2
2017-Dec-15 07:10 053 0 gusting 1 2.8
2017-Dec-15 06:55 136 2 gusting 3 3.3
2017-Dec-15 06:40 045 1 gusting 2 2.2
2017-Dec-15 06:25 271 2.2
2017-Dec-15 06:10 063 2.8